Regional Weather Roundup
Issued by NWS

Home | Current Version | Previous Version | Text Only | Print | Product List | Glossary On
Versions: 1 2 3 4 5 6 7 8 9 10 11 12 13 14 15 16 17 18 19 20 21 22 23 24 25 26 27 28 29 30 31 32 33 34 35 36 37 38 39 40 41 42 43 44 45 46 47 48 49
000
ASUS44 KLIX 091710
RWRLA
LOUISIANA WEATHER ROUNDUP
NATIONAL WEATHER SERVICE NEW ORLEANS LA
1100 AM CST TUE FEB 09 2016

NOTE: "FAIR" INDICATES FEW OR NO CLOUDS BELOW 12,000 FEET WITH NO
      SIGNIFICANT WEATHER AND/OR OBSTRUCTIONS TO VISIBILITY.
      SKY/WX - SKY CONDITION AND SIGNIFICANT WEATHER.
      TMP - AIR TEMPERATURE.    DP   - DEWPOINT TEMPERATURE.
      RH  - RELATIVE HUMIDITY.  PRES - PRESSURE.
      HX  - HEAT INDEX.         WCI  - WIND CHILL INDEX.

*  THESE STATIONS ARE NOT NWS OR FAA STATIONS AND ARE NOT UNDER
   NWS QUALITY CONTROL.

LAZ040-048-061>063-065-066-069-091800-
SOUTHEAST LOUISIANA

CITY           SKY/WX    TMP DP  RH WIND       PRES   REMARKS
N.O. AUDUBON   NOT AVBL
N.O. INTL ARPT MOSUNNY   52  16  24 W20       30.19F
N.O. LAKEFRONT SUNNY     48  25  40 W24       30.19F
N.O. DOWNTOWN* FAIR      52  16  24 MISG      30.20F
RESERVE*       FAIR      53  14  21 NW17G25   30.20F
SLIDELL        SUNNY     50  19  29 W10G21    30.16F
BATON ROUGE    SUNNY     51  16  24 W22G28    30.20F
BOOTHVILLE     SUNNY     49  22  34 NW16G24   30.20F
BELLE CHASSE   SUNNY     50  17  27 W14G24    30.19F
BOGALUSA*        N/A     51  15  24 NW17G25   30.16S
GALLIANO*      SUNNY    N/A N/A N/A W17       30.21F
NEW ROADS*     FAIR      49  19  30 NW12G25   30.21F
GONZALES*      FAIR      51  17  26 NW14G21   30.20F
HAMMOND*       SUNNY     52  12  20 NW17G26   30.17F
HOUMA*         SUNNY     52  16  24 NW16G28   30.21F
PORT FOURCHON* SUNNY     50  19  29 W14G24    30.22F

$$

LAZ041-044-053-054-091800-
SOUTHWEST LOUISIANA

CITY           SKY/WX    TMP DP  RH WIND       PRES   REMARKS
LAKE CHARLES   SUNNY     52  16  24 NW10G21   30.29F
LAFAYETTE      SUNNY     51  16  24 NW21G29   30.25F
PATTERSON      SUNNY     52  18  25 NW18G25   30.24F
SALT POINT       N/A     50  27  40 NW13G23   30.24F
NEW IBERIA     SUNNY     52  18  26 NW21G26   30.25F
CHENAULT AIRPK SUNNY     52  16  24 NW13      30.28F

$$

LAZ027-028-091800-
CENTRAL LOUISIANA

CITY           SKY/WX    TMP DP  RH WIND       PRES   REMARKS
FORT POLK      SUNNY     50  15  24 NW20G30   30.24F
ALEXANDRIA INT SUNNY     50  16  25 NW24G31   30.22F
ALEXANDRIA     SUNNY     54  16  22 NW13G26   30.21F

$$

LAZ001-002-091800-
NORTHWEST LOUISIANA

CITY           SKY/WX    TMP DP  RH WIND       PRES   REMARKS
SHREVEPORT     SUNNY     52  15  23 NW21G30   30.23F
BARKSDALE AFB  SUNNY     49  18  29 NW20      30.23S
DTN SHREVEPORT SUNNY     49  16  26 NW14G23   30.23F

$$

LAZ014-016-091800-
NORTHEAST LOUISIANA

CITY           SKY/WX    TMP DP  RH WIND       PRES   REMARKS
MONROE         SUNNY     49  18  29 W21G29    30.16F
TALLULAH         N/A    N/A N/A N/A MISG      30.14F

$$




USA.gov is the U.S. government's official web portal to all federal, state and local government web resources and services.